Terug naar catalogus

ONEWEB-0240

ActiefCommunicatiePO
NORAD 48785·PAYLOAD·🇬🇧 United Kingdom

Gelanceerd May 28, 2021 vanaf Vostochny Cosmodrome

Loading…

Volgende Passages (komende 24 uur)

TLE

VersSource: CelesTrak SupGP

Epoch: Sep 14, 2026, 17:18 UTC

1 48785C 21045U   26257.72133516  .00000651  00000+0  17318-2 0  2574
2 48785  87.8997 241.3384 0001905  76.8356  12.7373 13.15550745    17

Volg ONEWEB-0240 in realtime met AllMySat

Download on the App Store